Regional Weather Roundup
Issued by NWS Green Bay, WI

Home | Current Version | Previous Version | Graphics & Text | Print | Product List | Glossary Off
Versions: 1 2 3 4 5 6 7 8 9 10 11 12 13 14 15 16 17 18 19 20 21 22 23 24 25 26 27 28 29 30 31 32 33 34 35 36 37 38 39 40 41 42 43 44 45 46 47 48 49 50

000
ASUS43 KGRB 022200
RWRGRB

NORTH-CENTRAL AND NORTHEAST WISCONSIN REGIONAL WEATHER ROUNDUP
NATIONAL WEATHER SERVICE GREEN BAY WI
500 PM CDT SUN AUG 02 2015

WIZ005-009-010>012-018-019-022300-
NORTH CENTRAL WISCONSIN

CITY           SKY/WX    TMP DP  RH WIND       PRES   REMARKS
IRONWOOD       SUNNY     72  59  64 NW9       29.62S
MANITOWISH WTR NOT AVBL
ARBOR VITAE    NOT AVBL
EAGLE RIVER    NOT AVBL
LAND O LAKES   NOT AVBL
RHINELANDER    MOSUNNY   76  60  57 NW12      29.64R
PHILLIPS       NOT AVBL
ANTIGO         NOT AVBL
TOMAHAWK       NOT AVBL
MERRILL        NOT AVBL
$$

WIZ013-073-022300-
NORTHEAST WISCONSIN

CITY           SKY/WX    TMP DP  RH WIND       PRES   REMARKS
IRON MOUNTAIN  CLOUDY    74  61  63 NW8       29.58
MARINETTE      CLOUDY    64  57  77 CALM      29.58R
$$

WIZ017-030-035>037-045-022300-
CENTRAL WISCONSIN

CITY           SKY/WX    TMP DP  RH WIND       PRES   REMARKS
MEDFORD        NOT AVBL
WAUSAU         CLOUDY    77  59  53 N15G23    29.61R
MOSINEE        NOT AVBL
MARSHFIELD     MOSUNNY   79  65  62 NW15G25   29.64R
WISC RAPIDS    MOSUNNY   86  64  47 NW20G31   29.62R
STEVENS POINT  NOT AVBL
WAUPACA        NOT AVBL
SHAWANO        NOT AVBL
CLINTONVILLE   CLOUDY    70  63  78 E3        29.60R
$$

WIZ038-039-048-051-022300-
FOX VALLEY

CITY           SKY/WX    TMP DP  RH WIND       PRES   REMARKS
NWS GREEN BAY  CLOUDY    65  62  90 CALM      29.59R
APPLETON       PTSUNNY   72  61  68 NE13G24   29.59R
OSHKOSH        TSTM      73  66  78 NW20G51   29.57R SQUALL  VSB 3/4
FOND DU LAC    PTSUNNY   87  67  51 SW13G25   29.51F HX  90
$$

WIZ022-050-052-022300-
EAST CENTRAL WISCONSIN

CITY           SKY/WX    TMP DP  RH WIND       PRES   REMARKS
STURGEON BAY   CLOUDY    61  55  82 CALM      29.60S
MANITOWOC      NOT AVBL
SHEBOYGAN      MOSUNNY   87  68  52 W23G32    29.54R HX  90
$$

LMZ563-521-522-541>543-022300-
LAKESHORE

STATION/POSITION TIME  TEMP    WIND        PRES    VSBY  WAVE
                       AIR SEA DIR/SP/G                  HT/PER
                 (UTC) (F)     (DEG/KT/KT) (MB)    (MI)  (FT/S)
KEWAUNEE LKSHORE 2100   59     270/  7/ 12  998.5F
ALGOMA MARINA    2112           10/ 13/ 16   N/A
NORTHPORT PIER   2100   69     140/  6/  8 1001.4R
S GREEN BAY BUOY 2130   65 66  160/ 19/ 23 1002.9
STURGEON BAY CG  2140   72     100/  3     1002.3      6   2
CHAMBERS ISLAND  2100   65     140/  3/  9 1001.0F
MENOMINEE LKSHOR 2100   62      70/  2/  4 1002.1R
$$



USA.gov is the U.S. government's official web portal to all federal, state and local government web resources and services.